TimeCST,TemperatureF,Dew PointF,Humidity,Sea Level PressureIn,VisibilityMPH,Wind Direction,Wind SpeedMPH,Gust SpeedMPH,PrecipitationIn,Events,Conditions,WindDirDegrees,DateUTC
12:52 AM,51.1,30.9,46,30.22,10.0,SSE,11.5,-,N/A,,Clear,160,2012-11-18 06:52:00
1:52 AM,51.1,30.9,46,30.21,10.0,SSE,12.7,-,N/A,,Clear,150,2012-11-18 07:52:00
2:52 AM,51.1,32.0,48,30.21,10.0,SSE,9.2,-,N/A,,Overcast,150,2012-11-18 08:52:00
3:52 AM,51.1,32.0,48,30.19,10.0,SSE,10.4,-,N/A,,Overcast,150,2012-11-18 09:52:00
4:52 AM,52.0,33.1,49,30.19,10.0,SSE,10.4,-,N/A,,Overcast,150,2012-11-18 10:52:00
5:52 AM,52.0,33.1,49,30.20,10.0,SSE,9.2,-,N/A,,Overcast,150,2012-11-18 11:52:00
6:52 AM,53.1,33.1,47,30.20,10.0,SSE,11.5,-,N/A,,Overcast,160,2012-11-18 12:52:00
7:52 AM,54.0,33.1,45,30.21,10.0,South,10.4,-,N/A,,Overcast,170,2012-11-18 13:52:00
8:52 AM,55.9,33.1,42,30.22,10.0,South,10.4,-,N/A,,Overcast,170,2012-11-18 14:52:00
9:52 AM,59.0,34.0,39,30.21,10.0,South,13.8,-,N/A,,Mostly Cloudy,170,2012-11-18 15:52:00
10:52 AM,64.9,39.9,40,30.19,10.0,South,20.7,27.6,N/A,,Scattered Clouds,180,2012-11-18 16:52:00
11:52 AM,66.9,39.0,36,30.17,10.0,South,23.0,-,N/A,,Mostly Cloudy,180,2012-11-18 17:52:00
12:52 PM,68.0,39.9,36,30.13,10.0,SSE,19.6,27.6,N/A,,Mostly Cloudy,160,2012-11-18 18:52:00
1:52 PM,68.0,39.9,36,30.11,10.0,SSE,16.1,24.2,N/A,,Mostly Cloudy,160,2012-11-18 19:52:00
2:52 PM,68.0,37.0,32,30.10,10.0,South,19.6,26.5,N/A,,Mostly Cloudy,170,2012-11-18 20:52:00
3:52 PM,66.9,36.0,32,30.10,10.0,SSE,17.3,-,N/A,,Mostly Cloudy,150,2012-11-18 21:52:00
4:52 PM,66.0,37.0,34,30.11,10.0,SE,13.8,-,0.00,Rain,Light Rain,140,2012-11-18 22:52:00
5:52 PM,64.0,37.0,37,30.12,10.0,SSE,10.4,-,0.00,,Scattered Clouds,160,2012-11-18 23:52:00
6:52 PM,63.0,42.1,46,30.13,10.0,South,11.5,-,0.00,Rain,Light Rain,170,2012-11-19 00:52:00
7:52 PM,61.0,42.1,50,30.13,10.0,SSE,11.5,-,0.00,,Overcast,150,2012-11-19 01:52:00
8:52 PM,62.1,37.9,41,30.13,10.0,SSE,13.8,-,N/A,,Mostly Cloudy,160,2012-11-19 02:52:00
9:52 PM,62.1,37.9,41,30.13,10.0,South,10.4,-,N/A,,Scattered Clouds,170,2012-11-19 03:52:00
10:52 PM,61.0,39.0,44,30.12,10.0,South,10.4,-,N/A,,Scattered Clouds,170,2012-11-19 04:52:00
11:52 PM,61.0,39.9,46,30.12,10.0,South,10.4,-,N/A,,Overcast,170,2012-11-19 05:52:00